Regional Weather Roundup
Issued by NWS

Home | Current Version | Previous Version | Text Only | Print | Product List | Glossary Off
Versions: 1 2 3 4 5 6 7 8 9 10 11 12 13 14 15 16 17 18 19 20 21 22 23 24 25 26 27 28 29 30 31 32 33 34 35 36 37 38 39 40 41 42 43 44 45 46 47 48 49 50

000
ASUS45 KBOU 222107
RWRCO

WEATHER ROUNDUP FOR COLORADO
NATIONAL WEATHER SERVICE DENVER/BOULDER CO
200 PM MST WED FEB 22 2017

NOTE: "FAIR" INDICATES FEW OR NO CLOUDS BELOW 12000 FEET WITH NO
SIGNIFICANT WEATHER AND/OR OBSTRUCTIONS TO VISIBILITY.

COZ001>005-013-030-031-222200-
...NORTHWEST COLORADO...

CITY           SKY/WX    TMP DP  RH WIND       PRES   REMARKS
CRAIG          FLURRIES  36  31  82 NE6       29.85F
HAYDEN         CLOUDY    34  28  80 W5        29.85F WCI  30
MEEKER         CLOUDY    48  31  51 NW8       29.79F
MOUNT WERNER   NOT AVBL
STEAMBOAT SPGS CLOUDY    36  29  78 CALM      29.84F
WALDEN         NOT AVBL
$$

COZ006>008-011-222200-
...WEST CENTRAL VALLEYS...

CITY           SKY/WX    TMP DP  RH WIND       PRES   REMARKS
GRAND JUNCTION CLOUDY    61  28  28 W15G23    29.75F
MONTROSE       FAIR      60  23  24 SW18G29   29.81F
EAGLE          PTSUNNY   48  28  46 SW13      29.82F
RIFLE          FAIR      57  28  33 W17G23    29.77F
DELTA          PTSUNNY   65  25  22 SW23G37   29.78F
NUCLA          FAIR      59  25  27 SW25G37   29.86F
$$

COZ017>023-064>068-222200-
...SOUTHWEST COLORADO...

CITY           SKY/WX    TMP DP  RH WIND       PRES   REMARKS
DURANGO        FAIR      53  28  38 SW15G25   29.95F
CORTEZ         FAIR      60  24  25 SW15G29   29.90F
PAGOSA SPRINGS PTSUNNY   44  31  59 SW3       29.99F
TELLURIDE      FAIR      44  12  27 W15G24    29.96F
WOLF CREEK PAS CLOUDY    23  23 100 S21G36    30.07F WCI   8
$$

COZ009-010-012-014-032>034-037-058>063-222200-
...CENTRAL COLORADO...

CITY           SKY/WX    TMP DP  RH WIND       PRES   REMARKS
ASPEN          PTSUNNY   48  16  27 S10G18    29.83F
BUENA VISTA    FAIR      52   7  16 SW21G39   29.84F
COPPER MTN     NOT AVBL
BERTHOUD PASS  PTSUNNY   27  18  69 W17G33    29.92R WCI  14
COTTONWOOD PAS FAIR      43   5  21 SW18G32   29.89F
GUNNISON       FAIR      44  22  41 NW8       29.88F
KREMMLING      CLOUDY    54  21  28 SW17G29   29.81F
LEADVILLE      FAIR      37  11  34 S14       29.86F
MONARCH PASS   FAIR      28  14  54 W39G46    30.06F WCI  11
SALIDA         FAIR      56  12  17 W17G25    29.91F
SUNLIGHT       NOT AVBL
WILKERSON PASS FAIR      37   5  25 SW10G26   29.95F
$$

COZ069>075-222200-
...SAN LUIS VALLEY/SANGRE DE CRISTO MOUNTAINS...

CITY           SKY/WX    TMP DP  RH WIND       PRES   REMARKS
ALAMOSA        FAIR      51  24  34 SW23G31   29.93F
LA VETA PASS   PTSUNNY   36  19  51 N22G45    29.98F
SAGUACHE       FAIR      55  10  16 W26G36    29.86F
$$

COZ035-036-038>040-222200-
...NORTHERN COLORADO FRONT RANGE...

CITY           SKY/WX    TMP DP  RH WIND       PRES   REMARKS
DENVER INTL AP FAIR      56  21  25 E14       29.76F
DMNS CITY PARK   N/A     57  20  24 E23       29.73F
AURORA         MOSUNNY   56  22  26 E15       29.76F
FRONT RANGE AP MOSUNNY   57  23  26 MISG      29.78F
ERIE MUNI ARPT FAIR      57  20  23 E10       29.77F
BOULDER MUN AP FAIR      55  23  28 NE6       29.76F
CENTENNIAL     FAIR      57  21  24 NE14G22   29.75F
BROOMFIELD     MOSUNNY   57  21  24 E9        29.78F
FORT COLLINS   FAIR      59  24  26 VRB7      29.76F
LONGMONT       FAIR      60  22  23 SE7       29.77F
$$

COZ041-046-047-076>085-087-088-222200-
...PIKES PEAK/PALMER DIVIDE AND SOUTHERN FOOTHILLS...

CITY           SKY/WX    TMP DP  RH WIND       PRES   REMARKS
COLO. SPRINGS  FAIR      65   9  11 S17G28    29.77F
A. F. ACADEMY  FAIR      63  -2   7 W13G32    29.76F
SCHRIEVER AFB  FAIR      63  10  13 SW18G24   29.78F
ELLICOTT       FAIR     N/A N/A N/A W21G29    29.77F
FALCON         FAIR      62   2   9 W17G29    29.80F
FORT CARSON    FAIR      65  13  13 S18G29    29.74F
LIMON          FAIR      58  20  22 E12G21    29.78F
MONUMENT HILL  FAIR      59   5  11 W20G32    29.80F
TRINIDAD       FAIR      66   7  10 W33G45    29.81S
$$

COZ042>045-048>051-090-091-222200-
...NORTHEAST COLORADO...

CITY           SKY/WX    TMP DP  RH WIND       PRES   REMARKS
GREELEY ARPT   FAIR      58  24  27 E12       29.77F
AKRON          FAIR      59  18  20 VRB5      29.79F
BURLINGTON     FAIR      63  23  21 MISG      29.80F
WRAY           NOT AVBL
STERLING       FAIR      61  21  21 N15       29.77F
HOLYOKE        FAIR      66  16  14 W7        29.77F
FORT MORGAN    FAIR      59  16  19 N7G18     29.79F
$$

COZ086-089-092>099-222200-
...SOUTHEAST COLORADO...

CITY           SKY/WX    TMP DP  RH WIND       PRES   REMARKS
PUEBLO         FAIR      73  12   9 SW24G32   29.71F
LA JUNTA       FAIR      73  22  14 MISG      29.73F
LAMAR          FAIR      70  24  17 NE6       29.74F
SPRINGFIELD      N/A     74  17  11 N6        29.75F
$$



USA.gov is the U.S. government's official web portal to all federal, state and local government web resources and services.